sat.trackr.live / text

‹ back to catalog

STARLINK-6038

NORAD 56317 · 2023-058A

PAYLOAD ACTIVE UNKNOWN

§ Identity

Operator
Country
US
Launch date
2023-04-27
Launch site
AFWTR
Launch vehicle
Mass (kg)
RCS (m²)

Purposes: comms

External: N2YO · Heavens-Above · Gunter

§ Orbital elements

Epoch: 2026-09-20T13:26:04.368192Z

Period
93.91 min
Inclination
97.2843°
Eccentricity
0.0001468
Mean motion
15.33435845 rev/d
Perigee alt
464.6 km
Apogee alt
466.6 km
Semi-major
6,843.7 km
B*
1.4934e-5
RAAN
260.3032°
Arg perigee
92.2410°
Mean anomaly
267.9001°
Rev number
18,729

§ Raw data

STARLINK-60381 56317U 23058A   26263.55977278  .00000407  00000+0  14934-4 0  99942 56317  97.2843 260.3032 0001468  92.2410 267.9001 15.33435845187293

JSON: /api/v1/satellites/56317 · /tle

For live sub-satellite position, see the globe view (requires WebGL).

§ Visibility from observer

Set your observer location to see the next 7 days of passes ≥ 10°. The values pass through the URL so the page stays shareable.

No JS? Fill the form by hand. The geolocation button needs JavaScript.